Other Public Products
Issued by NWS Charleston, SC

Home | Current Version | Previous Version | Text Only | Print | Product List | Glossary On
Versions: 1 2 3 4 5 6 7 8 9 10 11 12 13 14 15 16 17 18 19 20 21 22 23 24 25 26 27 28 29 30 31 32 33 34 35 36 37 38 39 40 41 42 43 44 45 46 47 48 49 50
000
FPUS82 KCHS 240712
OPUCHS

TEST...KCHS/KSAV Gateway Observations...TEST
National Weather Service Charleston SC
300 AM EDT FRI MAR 24 2017

NOTE: "fair" indicates few or no clouds below 12,000 feet with no
significant weather and/or obstructions to visibility.

SCZ050-WAZ558-NCZ071-TXZ119-213-PAZ071-DCZ001-FLZ074-172-MI076-
NYZ176-178-MAZ016-IL014-TNZ027-NJZ106-GAZ044-MD014-240800-

...Gateway Observations for Charleston International...

CITY           SKY/WX    TMP DP  RH WIND       PRES   REMARKS
Chas Airport   PTCLDY    48  43  82 NE7       30.46F
Seattle        LGT RAIN  45  44  97 NW3       29.87F
Charlotte      PTCLDY    46  31  55 S9        30.50S
Dallas DFW     MOCLDY    69  59  70 S33G43    29.82F
Dallas Love    MOCLDY    69  57  65 S28G35    29.86F
Philladelphia  PTCLDY    33  26  75 S6        30.53F WCI  28
Wash National  CLEAR     37  23  56 S9        30.52F WCI  30
Baltimore      PTCLDY    33  16  49 CALM      30.51F
Miami          CLOUDY    71  65  81 NE15G21   30.22F
Detroit        RAIN      40  36  86 S13       30.10F FOG     WCI  32
Newark         CLOUDY    34  16  47 SW8       30.53R WCI  27
Laguardia      PTCLDY    40  18  41 SW7       30.52S WCI  35
J F K          PTCLDY    35  24  64 SW5       30.54S WCI  31
Boston Logan   CLEAR     31   7  36 CALM      30.52F
Ft. Lauderdale MOCLDY    71  61  70 E17G30    30.22F
Chicago O`Hare PTCLDY    44  34  67 S12       29.96F
Chicago Midway PTCLDY    48  34  58 S12G17    29.97F
Houston Bush   MOCLDY    71  63  75 S14       30.01F
Houston Hobby  MOCLDY    70  65  84 SE14      30.01F
Nashville      CLEAR     60  44  55 S14       30.24R
Atlanta        MOCLDY    59  42  53 SE10      30.40S

$$

GAZ044-118-TXZ119-213-NCZ071-DCZ001-MDZ014-506-PAZ021-071-NJZ106-
NYZ176-178-MAZ106-OHZ011-021-055-MIZ076-KYZ091-ILZ014-INZ047-
MNZ060-ONZ431-240800-

...Gateway Observations for Savannah International...

CITY           SKY/WX    TMP DP  RH WIND       PRES   REMARKS
Savannah Arpt  CLEAR     50  43  77 NE7       30.44F
Atlanta        MOCLDY    59  42  53 SE10      30.40S
Charlotte      PTCLDY    46  31  55 S9        30.50S
Dallas DFW     MOCLDY    69  59  70 S33G43    29.82F
Houston Bush   MOCLDY    71  63  75 S14       30.01F
Wash National  CLEAR     37  23  56 S9        30.52F WCI  30
Wash Dulles    PTCLDY    34  18  52 S7        30.49F WCI  28
Baltimore      PTCLDY    33  16  49 CALM      30.51F
Philadelphia   PTCLDY    33  26  75 S6        30.53F WCI  28
Newark         CLOUDY    34  16  47 SW8       30.53R WCI  27
Laguardia      PTCLDY    40  18  41 SW7       30.52S WCI  35
J F K          PTCLDY    35  24  64 SW5       30.54S WCI  31
Boston         CLEAR     31   7  36 CALM      30.52F
Pittsburg      CLOUDY    40  16  37 S7        30.24F WCI  35
Akron          LGT RAIN  43  22  43 S9        30.19F
Cleveland      LGT RAIN  43  32  65 S15       30.19F
Cincinnati     CLOUDY    53  37  54 S12       30.15F
Columbus       LGT RAIN  47  31  53 S10       30.16F
Detroit        RAIN      40  36  86 S13       30.10F FOG     WCI  32
Chicago O`Hare PTCLDY    44  34  67 S12       29.96F
Minneapolis    CLOUDY    39  36  89 E6        29.85F FOG     WCI  35
Indianapolis   CLEAR     52  37  56 S15       30.06F
Toronto Canada CLOUDY    34  21  60 SE6       30.17F WCI  29

$$




USA.gov is the U.S. government's official web portal to all federal, state and local government web resources and services.